Location: Cicognara
(44.9500°N, 10.4667°E)
Time: 23:17:40
(UTC+00:00)

In-Cosmos 22 - Pass Details

Date: 20 June 2021
Orbit: 785 x 876 km, 81.2° (Epoch: 23 July)

Event Time Altitude Azimuth Distance (km) Brightness Sun altitude
Rises 19:47:48 0° 184° (S) 3,267 6.9 -6.3°
Reaches altitude 10° 19:50:09 10° 183° (S) 2,339 6.1 -6.6°
Maximum altitude 19:55:24 77° 98° (E) 810 4.1 -7.3°
Drops below altitude 10° 20:00:43 10° 13° (NNE) 2,366 7.0 -7.9°
Sets 20:03:07 0° 12° (NNE) 3,307 7.8 -8.2°
